Patrick Air Force Base, FL

5:49 PM EDT on July 28, 2016 (GMT -0400)
Patrick Air Force Base

Weather History for KCOF - October, 2011

Change the Weather History Date:

Tuesday, October 11, 2011

  Actual Average Record
Temperature  
Mean Temperature 78 °F -  
Max Temperature 84 °F 81 °F 89 °F (2002)
Min Temperature 72 °F 72 °F 68 °F (1996)
Cooling Degree Days 12    
Growing Degree Days 28 (Base 50)    
Moisture  
Dew Point 74 °F    
Average Humidity 87    
Maximum Humidity 99    
Minimum Humidity 72    
Precipitation  
Precipitation 0.00 in - - ()
Sea Level Pressure  
Sea Level Pressure 29.82 in    
Wind  
Wind Speed 8 mph (South)    
Max Wind Speed 14 mph    
Max Gust Speed 29 mph    
Visibility 9 miles    
Events Rain , Thunderstorm    
Averages and records for this station are not official NWS values.
T = Trace of Precipitation, MM = Missing Value Source: NWS Daily Summary

Daily Weather History Graph

Daily Weather History Graph

Search for Another Location

Airport or City:

Trip Planner

Search our weather history database for the weather conditions in past years. The results will help you decide how hot, cold, wet, or windy it might be!

Date:

Astronomy

Oct. 11, 2011 Rise Set
Actual Time 7:20 AM EDT 6:57 PM EDT
Civil Twilight 6:56 AM EDT 7:21 PM EDT
Nautical Twilight 6:29 AM EDT 7:48 PM EDT
Astronomical Twilight 6:02 AM EDT 8:15 PM EDT
Moon 6:33 PM EDT (10/11) 6:54 AM EDT (10/11)
Length of Visible Light 12h 24m
Length of Day
11h 36m
Full, 100% of the Moon is Illuminated
Oct 11
Full
Oct 11
Full
Oct 19
Last Quarter
Oct 26
New
Nov 2
First Quarter

Hourly Weather History & Observations

Time (EDT) Temp. Heat Index Dew Point Humidity Pressure Visibility Wind Dir Wind Speed Gust Speed Precip Events Conditions
12:55 AM 74.8 °F - 74.5 °F 99% 29.81 in 10.0 mi SSW 5.8 mph - N/A   Clear
1:55 AM 74.7 °F - 73.4 °F 96% 29.80 in 10.0 mi South 5.8 mph - N/A   Clear
2:55 AM 74.1 °F - 73.6 °F 98% 29.78 in 10.0 mi South 5.8 mph - N/A   Clear
3:55 AM 73.6 °F - 72.1 °F 95% 29.78 in 10.0 mi South 5.8 mph - N/A   Clear
4:55 AM 73.4 °F - 73.0 °F 99% 29.79 in 10.0 mi South 5.8 mph - N/A   Clear
5:55 AM 72.9 °F - 72.7 °F 99% 29.80 in 10.0 mi SSW 5.8 mph - N/A   Clear
6:55 AM 72.9 °F - 72.5 °F 99% 29.82 in 10.0 mi South 3.5 mph - N/A   Clear
7:55 AM 73.2 °F - 63.7 °F 72% 29.83 in 10.0 mi SSW 5.8 mph - N/A   Clear
8:55 AM 76.8 °F - 73.6 °F 90% 29.85 in 10.0 mi SSW 8.1 mph - N/A   Clear
9:55 AM 80.2 °F 84.9 °F 73.8 °F 81% 29.86 in 10.0 mi SSW 9.2 mph - N/A   Clear
10:55 AM 82.0 °F 87.9 °F 73.9 °F 76% 29.86 in 10.0 mi SSW 9.2 mph - N/A   Clear
11:55 AM 83.7 °F 90.4 °F 73.8 °F 72% 29.86 in 10.0 mi SW 6.9 mph - N/A   Clear
12:55 PM 81.1 °F 87.6 °F 75.7 °F 84% 29.85 in 10.0 mi SE 11.5 mph - N/A   Scattered Clouds
1:08 PM 82.4 °F 90.9 °F 77.0 °F 84% 29.84 in 10.0 mi SE 13.8 mph - N/A   Light Drizzle
1:15 PM 82.4 °F 89.5 °F 75.2 °F 79% 29.84 in 10.0 mi SE 13.8 mph - N/A   Partly Cloudy
1:55 PM 81.5 °F 88.3 °F 75.9 °F 83% 29.82 in 10.0 mi SE 11.5 mph - 0.00 in   Partly Cloudy
2:39 PM 80.6 °F 86.2 °F 75.2 °F 84% 29.82 in 10.0 mi SSE 10.4 mph - N/A Rain Light Rain
2:45 PM 78.8 °F - 75.2 °F 89% 29.82 in 1.2 mi SSE 13.8 mph 21.9 mph N/A Rain Heavy Rain
2:55 PM 77.5 °F - 74.1 °F 89% 29.82 in 0.8 mi SE 8.1 mph 21.9 mph 0.00 in Rain Rain
2:56 PM 77.0 °F - 75.2 °F 94% 29.82 in 3.0 mi ESE 6.9 mph - N/A Rain Light Rain
3:06 PM 78.8 °F - 75.2 °F 89% 29.81 in 10.0 mi SE 6.9 mph - N/A   Scattered Clouds
3:55 PM 81.1 °F 86.6 °F 74.1 °F 79% 29.80 in 10.0 mi SE 10.4 mph - 0.00 in   Clear
4:55 PM 82.4 °F 89.8 °F 75.7 °F 80% 29.79 in 10.0 mi SE 11.5 mph - N/A   Clear
5:55 PM 81.1 °F 87.6 °F 75.7 °F 84% 29.79 in 10.0 mi SE 10.4 mph - N/A   Clear
6:55 PM 80.6 °F 86.6 °F 76.1 °F 86% 29.80 in 10.0 mi SSE 9.2 mph - N/A   Scattered Clouds
7:29 PM 78.8 °F - 75.2 °F 89% 29.82 in 10.0 mi West 4.6 mph - N/A Thunderstorm Mostly Cloudy
7:32 PM 78.8 °F - 75.2 °F 89% 29.82 in 10.0 mi WSW 4.6 mph - N/A Thunderstorm Light Drizzle
7:55 PM 77.7 °F - 73.2 °F 86% 29.83 in 10.0 mi WSW 10.4 mph - 0.00 in Rain Light Rain
8:02 PM 77.0 °F - 69.8 °F 78% 29.82 in 4.0 mi SE 9.2 mph 28.8 mph N/A Rain Light Rain
8:07 PM 77.0 °F - 71.6 °F 83% 29.82 in 10.0 mi SSE 6.9 mph - N/A   Mostly Cloudy
8:55 PM 78.8 °F - 75.6 °F 90% 29.83 in 10.0 mi South 9.2 mph - 0.00 in   Partly Cloudy
9:55 PM 79.0 °F - 75.6 °F 89% 29.85 in 10.0 mi South 9.2 mph - N/A   Clear
10:55 PM 78.6 °F - 75.0 °F 89% 29.86 in 10.0 mi SSW 6.9 mph - N/A   Scattered Clouds
11:07 PM 78.8 °F - 75.2 °F 89% 29.86 in 10.0 mi South 6.9 mph - N/A   Mostly Cloudy
11:55 PM 78.6 °F - 74.8 °F 88% 29.86 in 10.0 mi South 10.4 mph - 0.00 in   Partly Cloudy